Notice: Undefined index: language in /home/spanairv/public_html/vam/index.php on line 25
Spanair Virtual

 INFORMACIÓN METAR y TAF
METAR FOR LEZL
ADDS - METARS form results

(2258 UTC 14 December 2018)
Data provider http://aviationweather.gov/metar/data/
 
METAR text: LEZL 142230Z VRB01KT CAVOK 08/07 Q1028 NOSIG
Conditions at: LEZL (SEVILLA (CIV/MIL, ES) observed 2230 UTC 14 December 2018
Temperature: 8.0°C (46°F)
Dewpoint: 7.0°C (45°F) [RH = 93%]
Pressure (altimeter): 30.35 inches Hg (1028.0 mb)
Winds: variable direction winds at 1 MPH (1 knots; 0.5 m/s)
Visibility: 6 or more miles (10+ km)
Ceiling: ceiling and visibility are OK
Clouds: unknown
Weather: no significant weather observed at this time

METAR text: LEZL 142200Z VRB01KT CAVOK 09/06 Q1028 NOSIG
Conditions at: LEZL (SEVILLA (CIV/MIL, ES) observed 2200 UTC 14 December 2018
Temperature: 9.0°C (48°F)
Dewpoint: 6.0°C (43°F) [RH = 81%]
Pressure (altimeter): 30.35 inches Hg (1028.0 mb)
Winds: variable direction winds at 1 MPH (1 knots; 0.5 m/s)
Visibility: 6 or more miles (10+ km)
Ceiling: ceiling and visibility are OK
Clouds: unknown
Weather: no significant weather observed at this time

Forecast for: LEZL (SEVILLA (CIV/MIL, ES)
Text: TAF LEZL 142000Z 1421/1521 02004KT CAVOK TX17/1515Z TN05/1507Z
Forecast period: 2100 UTC 14 December 2018 to 2100 UTC 15 December 2018
Forecast type: FROM: standard forecast or significant change
Winds: from the NNE (20 degrees) at 5 MPH (4 knots; 2.1 m/s)
Visibility: 6 or more miles 10+ km)
Ceiling: unknown
Clouds: missing
Weather: no significant weather forecast for this period

 MAPA DE AEROPUERTO

 INFORMACIÓN DE PISTA
Pista 09 Longitud 11024 ft Ancho 148 ft
Elevación 83 ft Umbral desplazado 0 ft Rumbo de pista 90
Pista 27 Longitud 11024 ft Ancho 148 ft
Elevación 111 ft Umbral desplazado 0 ft Rumbo de pista 270

 FRECUANCIAS DEL AEROPUERTO
Tipo APP Nombre APP Frecuencia 120 MHZ
Tipo ATIS Nombre ATIS Frecuencia 118.175 MHZ
Tipo GND Nombre GND Frecuencia 121.7 MHZ
Tipo TWR Nombre TWR Frecuencia 118.1 MHZ

 RADIO AYUDAS DEL AEROPUERTO
Tipo NDB Nombre Sevilla Frecuencia 420 KHZ
Tipo VOR-DME Nombre Sevilla Frecuencia 113700 KHZ





VAM [v2.6.2]

Normativa | Spanair Virtual © 2017 | Customized by JZ © 2017 for Spanair Virtual